Location: Lanoux
(43.1180°N, 1.4255°E)
Time: 15:06:10
(UTC+00:00)

BREEZE-M DEB (TANK) - Pass Details

Date: 13 December 2025
Orbit: 332 x 14359 km, 49.5° (Epoch: 19 January)

Event Time Altitude Azimuth Distance (km) Brightness Sun altitude
Rises 17:43:05 0° 236° (SW) 4,560 9.0 -14.6°
Reaches altitude 10° 17:47:19 10° 234° (SW) 2,508 7.4 -15.4°
Maximum altitude 17:51:56 71° 152° (SSE) 475 2.4 -16.2°
Enters shadow 17:52:41 43° 80° (E) 580 2.4 -16.3°
